Time,TemperatureF,DewpointF,PressureIn,WindDirection,WindDirectionDegrees,WindSpeedMPH,WindSpeedGustMPH,Humidity,HourlyPrecipIn,Conditions,Clouds,dailyrainin,SoftwareType,DateUTC
2015-05-25 00:02:00,70.2,57.1,30.08,ESE,113,2.5,4.3,63,0.00,,,0.00,WUHU216HW,2015-05-25 04:02:00,
2015-05-25 00:07:00,70.2,57.1,30.08,ESE,113,1.1,3.8,63,0.00,,,0.00,WUHU216HW,2015-05-25 04:07:00,
2015-05-25 00:12:00,70.0,56.9,30.08,SSW,203,3.8,4.5,63,0.00,,,0.00,WUHU216HW,2015-05-25 04:12:00,
2015-05-25 00:17:00,69.8,56.7,30.08,ESE,113,2.5,4.5,63,0.00,,,0.00,WUHU216HW,2015-05-25 04:17:00,
2015-05-25 00:22:00,69.8,56.7,30.08,East,90,2.2,5.1,63,0.00,,,0.00,WUHU216HW,2015-05-25 04:22:00,
2015-05-25 00:27:00,69.8,57.1,30.08,ESE,113,1.6,5.1,64,0.00,,,0.00,WUHU216HW,2015-05-25 04:27:00,
2015-05-25 00:32:00,69.7,56.9,30.08,ESE,113,1.3,5.4,64,0.00,,,0.00,WUHU216HW,2015-05-25 04:32:00,
2015-05-25 00:37:00,69.5,56.8,30.08,ESE,113,2.0,5.4,64,0.00,,,0.00,WUHU216HW,2015-05-25 04:37:00,
2015-05-25 00:42:00,69.5,56.8,30.08,East,90,0.2,5.4,64,0.00,,,0.00,WUHU216HW,2015-05-25 04:42:00,
2015-05-25 00:47:00,69.5,56.8,30.08,SSE,158,1.6,4.0,64,0.00,,,0.00,WUHU216HW,2015-05-25 04:47:00,
2015-05-25 00:52:00,69.3,56.6,30.08,SSE,158,2.7,5.1,64,0.00,,,0.00,WUHU216HW,2015-05-25 04:52:00,
2015-05-25 00:57:00,69.3,57.0,30.08,ESE,113,1.3,5.1,65,0.00,,,0.00,WUHU216HW,2015-05-25 04:57:00,
2015-05-25 01:02:00,69.1,56.8,30.08,SSW,203,2.0,5.1,65,0.00,,,0.00,WUHU216HW,2015-05-25 05:02:00,
2015-05-25 01:07:00,69.1,56.8,30.08,SSW,203,3.6,5.1,65,0.00,,,0.00,WUHU216HW,2015-05-25 05:07:00,
2015-05-25 01:12:00,69.1,56.8,30.08,SSE,158,4.9,5.4,65,0.00,,,0.00,WUHU216HW,2015-05-25 05:12:00,
2015-05-25 01:17:00,68.9,56.7,30.08,SE,135,1.3,5.4,65,0.00,,,0.00,WUHU216HW,2015-05-25 05:17:00,
2015-05-25 01:22:00,68.9,56.7,30.08,SE,135,1.6,4.0,65,0.00,,,0.00,WUHU216HW,2015-05-25 05:22:00,
2015-05-25 01:27:00,68.8,56.5,30.08,SE,135,1.1,4.0,65,0.00,,,0.00,WUHU216HW,2015-05-25 05:27:00,
2015-05-25 01:32:00,68.8,56.9,30.08,WSW,248,0.2,5.4,66,0.00,,,0.00,WUHU216HW,2015-05-25 05:32:00,
2015-05-25 01:37:00,68.6,56.7,30.08,SE,135,2.2,5.4,66,0.00,,,0.00,WUHU216HW,2015-05-25 05:37:00,
2015-05-25 01:42:00,68.4,56.6,30.08,SSE,158,1.1,4.7,66,0.00,,,0.00,WUHU216HW,2015-05-25 05:42:00,
2015-05-25 01:47:00,68.4,56.6,30.07,SE,135,1.1,4.7,66,0.00,,,0.00,WUHU216HW,2015-05-25 05:47:00,
2015-05-25 01:52:00,68.2,56.8,30.08,SE,135,2.7,4.3,67,0.00,,,0.00,WUHU216HW,2015-05-25 05:52:00,
2015-05-25 01:57:00,68.0,56.7,30.07,East,90,2.9,4.7,67,0.00,,,0.00,WUHU216HW,2015-05-25 05:57:00,
2015-05-25 02:02:00,67.9,56.5,30.07,SE,135,2.7,4.7,67,0.00,,,0.00,WUHU216HW,2015-05-25 06:02:00,
2015-05-25 02:07:00,67.9,56.9,30.07,ESE,113,2.2,4.9,68,0.00,,,0.00,WUHU216HW,2015-05-25 06:07:00,
2015-05-25 02:12:00,67.7,56.7,30.07,SE,135,2.2,7.4,68,0.00,,,0.00,WUHU216HW,2015-05-25 06:12:00,
2015-05-25 02:17:00,67.7,57.2,30.07,East,90,2.5,7.4,69,0.00,,,0.00,WUHU216HW,2015-05-25 06:17:00,
2015-05-25 02:22:00,67.5,57.0,30.07,SE,135,1.6,4.7,69,0.00,,,0.00,WUHU216HW,2015-05-25 06:22:00,
2015-05-25 02:27:00,67.5,57.0,30.07,East,90,2.0,4.7,69,0.00,,,0.00,WUHU216HW,2015-05-25 06:27:00,